{"data":{"norad_id":48435,"epoch":"2026-05-25T04:51:59.821344Z","epoch_age_seconds":56806,"freshness":"FRESH","line1":"1 48435U 21040H   26145.20277571  .00000971  00000+0  43051-4 0  9993","line2":"2 48435  53.1601 169.4032 0001241  80.4888 279.6254 15.31700267278577","mean_motion":15.31700267,"eccentricity":0.0001241,"inclination_deg":53.1601,"raan_deg":169.4032,"arg_perigee_deg":80.4888,"mean_anomaly_deg":279.6254,"bstar":4.3051e-5,"rev_number":27857,"period_min":94.013171573078,"perigee_km":469.88925377632,"apogee_km":471.58914484899,"semimajor_km":6848.8761993127,"source":"CELESTRAK","updated_at":"2026-05-25T13:38:16.714874Z"}}